Paso Robles, CA

6:49 AM PDT on October 19, 2017 (GMT -0700)
Paso Robles Municipal

Weather History for KPRB - April, 2013

Change the Weather History Date:

Tuesday, April 2, 2013

  Actual Average Record
Temperature  
Mean Temperature 62 °F 54 °F  
Max Temperature 77 °F 69 °F 93 °F (1966)
Min Temperature 46 °F 40 °F 28 °F (1976)
Degree Days  
Heating Degree Days 3 11  
Month to date heating degree days 9 22  
Since 1 July heating degree days 2258 2481  
Cooling Degree Days 0 0  
Month to date cooling degree days 0 0  
Year to date cooling degree days 0 0  
Growing Degree Days 12 (Base 50)    
Moisture  
Dew Point 45 °F    
Average Humidity 62    
Maximum Humidity 93    
Minimum Humidity 31    
Precipitation  
Precipitation 0.00 in 0.04 in 1.14 in (1958)
Month to date precipitation T 0.08  
Year to date precipitation 1.40 7.91  
Since 1 July precipitation 4.61  
Sea Level Pressure  
Sea Level Pressure 30.12 in    
Wind  
Wind Speed 4 mph (NNW)    
Max Wind Speed 14 mph    
Max Gust Speed -    
Visibility 10 miles    
Events      
T = Trace of Precipitation, MM = Missing Value Source: NWS Daily Summary

Daily Weather History Graph

Daily Weather History Graph

Search for Another Location

Airport or City:

Trip Planner

Search our weather history database for the weather conditions in past years. The results will help you decide how hot, cold, wet, or windy it might be!

Date:

Astronomy

Apr. 02, 2013 Rise Set
Actual Time 6:47 AM PDT 7:25 PM PDT
Civil Twilight 6:21 AM PDT 7:51 PM PDT
Nautical Twilight 5:51 AM PDT 8:21 PM PDT
Astronomical Twilight 5:20 AM PDT 8:52 PM PDT
Moon 1:26 AM PDT (4/2) 11:51 AM PDT (4/2)
Length of Visible Light 13h 29m
Length of Day
12h 38m
Waning Gibbous, 55% of the Moon is Illuminated
Apr 2
Waning Gibbous
Apr 2
Last Quarter
Apr 10
New
Apr 18
First Quarter
Apr 25
Full

Hourly Weather History & Observations

Time (PDT) Temp. Dew Point Humidity Pressure Visibility Wind Dir Wind Speed Gust Speed Precip Events Conditions
12:53 AM 50.0 °F 46.0 °F 86% 30.13 in 10.0 mi WNW 4.6 mph - N/A   Clear
1:29 AM 48.2 °F 44.6 °F 87% 30.14 in 10.0 mi West 4.6 mph - N/A   Scattered Clouds
1:53 AM 46.9 °F 45.0 °F 93% 30.14 in 10.0 mi West 3.5 mph - N/A   Partly Cloudy
2:53 AM 46.0 °F 44.1 °F 93% 30.14 in 10.0 mi Calm Calm - N/A   Mostly Cloudy
3:53 AM 48.0 °F 45.0 °F 89% 30.14 in 10.0 mi Calm Calm - N/A   Overcast
4:53 AM 48.9 °F 45.0 °F 86% 30.15 in 10.0 mi Calm Calm - N/A   Overcast
5:53 AM 48.0 °F 46.0 °F 93% 30.16 in 10.0 mi North 4.6 mph - N/A   Overcast
6:20 AM 48.2 °F 46.4 °F 93% 30.16 in 10.0 mi NE 5.8 mph - N/A   Overcast
6:53 AM 48.0 °F 46.0 °F 93% 30.16 in 10.0 mi North 3.5 mph - N/A   Overcast
7:53 AM 48.0 °F 46.0 °F 93% 30.18 in 10.0 mi Calm Calm - N/A   Overcast
8:53 AM 50.0 °F 46.0 °F 86% 30.19 in 10.0 mi NE 3.5 mph - N/A   Overcast
9:53 AM 51.1 °F 46.0 °F 83% 30.17 in 10.0 mi Calm Calm - N/A   Overcast
10:43 AM 53.6 °F 46.4 °F 77% 30.17 in 10.0 mi Calm Calm - N/A   Overcast
10:53 AM 54.0 °F 46.9 °F 77% 30.17 in 10.0 mi South 3.5 mph - N/A   Mostly Cloudy
11:10 AM 55.4 °F 46.4 °F 72% 30.16 in 10.0 mi Calm Calm - N/A   Scattered Clouds
11:53 AM 59.0 °F 46.9 °F 64% 30.15 in 10.0 mi Variable 3.5 mph - N/A   Clear
12:53 PM 66.0 °F 46.0 °F 48% 30.13 in 10.0 mi Variable 4.6 mph - N/A   Clear
1:53 PM 71.1 °F 45.0 °F 39% 30.09 in 10.0 mi Variable 4.6 mph - N/A   Clear
2:53 PM 73.0 °F 43.0 °F 34% 30.07 in 10.0 mi North 6.9 mph - N/A   Clear
3:53 PM 75.9 °F 44.1 °F 32% 30.04 in 10.0 mi Calm Calm - N/A   Clear
4:53 PM 75.9 °F 44.1 °F 32% 30.02 in 7.0 mi NW 8.1 mph - N/A   Clear
5:53 PM 77.0 °F 44.1 °F 31% 30.02 in 10.0 mi North - - N/A   Clear
6:53 PM 73.9 °F 45.0 °F 35% 30.02 in 10.0 mi East 10.4 mph - N/A   Scattered Clouds
7:53 PM 70.0 °F 45.0 °F 41% 30.05 in 10.0 mi Calm Calm - N/A   Clear
8:53 PM 63.0 °F 46.9 °F 56% 30.07 in 10.0 mi WNW 6.9 mph - N/A   Clear
9:53 PM 60.1 °F 46.0 °F 60% 30.10 in 7.0 mi NW 10.4 mph - N/A   Clear
10:53 PM 55.9 °F 46.0 °F 69% 30.11 in 6.0 mi NW 10.4 mph - N/A   Haze
11:53 PM 54.0 °F 46.0 °F 75% 30.12 in 7.0 mi NW 9.2 mph - N/A   Clear